STARLINK-32151, 60299

Orbit data source: Space-Track

STARLINK-32151, 60299 is a payload satellite owned by SpaceX/Seattle (US) in LEO that was launched on Sun, 28 Jul 2024 UTC via an FALCON 9 launch vehicle from the Air Force Eastern Test Range (AFETR). Payload-class satellites include a variety of spacecraft equipped with specific instruments for various scientific and technological missions. These include communications satellites like Starlink; space stations such as the ISS; scientific satellites like the Hubble; Earth observation satellites from companies like Planet Labs, Umbra, and HawkEye 360; GPS; miniature CubeSats for education and research; and military/defense satellites.

Loading next visibility...
Identifier
60299, 2024-132X
Orbit
LEO
Country
Flag of USUS
Related business
Manufacturer
SpaceX/Seattle
Mission
Operational Commercial Communications
Bus & Motor
STARLINK V2M, Unknown motor
Mass
730 kg wet, ~700 kg dry
Launch date (UTC)
2024-07-28 (2 years ago)
Launch vehicle
FALCON 9
Launch site
Air Force Eastern Test Range (AFETR)
Object type
Payload
Rocket body
Debris
Shape & HBR
Box + 2 Pan, 17.7 m
Radar Cross Section
33.884 m², Large (>1 m²)

Expand to show TLE details & history
Last TLE update: 1 day ago

TLE from 1 day ago
0 STARLINK-32151
1 60299U 24132X   26067.29679599  .00000557  00000-0  30941-4 0  9993
2 60299  53.1617  30.4512 0001217  82.3589 277.7549 15.30176001 91748
Epoch: 2026-03-08T07:07Z
TLE epoch observation values (Epoch: 2026-03-08T07:07:23.173Z)
Latitude
-0.0001°
Longitude
117.59845°
Altitude
476.074 km
Speed
7.629 km/s
True Right ascension
02h 01m 48s
True Declination
0° 00' 00"
Sunlit
Object was in daylight at epoch
Visualization orbit readout
Latitude
Unknown
Longitude
Unknown
Altitude
Unknown
Speed
Unknown
Apparent Right ascension
Unknown
Apparent Declination
Unknown
Sunlit
N/A
Visualization observer readout
Local Sidereal Time
16:25:03
Azimuth
Unknown
Elevation
Unknown
Doppler factor
Unknown
Orbital elements
Apogee altitude
476.377 km
Perigee altitude
474.709 km
Semi-major axis
6,853.68 km
Eccentricity
0.00012
Inclination
53.1617°
RAAN
30.4512°
Arg. of periapsis
82.3589°
True anomaly
277.74108°
Mean anomaly
277.7549°
Eccentric anomaly
277.74799°
Mean motion
3.82523 °/min
Orbital period
94.11 mins
BSTAR
0.000030941
Loading maneuver chart data...
Computing Atmospheric mass density...
Loading historical data...
Loading historical data...
Loading historical data...
Loading historical data...
Loading historical data...
Loading historical data...
Loading historical data...

Documentation

Showing up to 5 results
|